Weather in Ungasan

Indonesia     8°49′50″S   115°09′55″E
temp.,
°C
wind,
m/s
gust,
m/s
humid.,
%
clouds,
%
prec.,
mm/h
press.,
hPa
HPBL,
m
13 april, tue
tue1323:00+28wsw12695 0.0 1012569
02:00+26nnw22800 0.1 1011198
05:00+26nnw22835 0.3 1011137
08:00+26n11784 1.6 101357
11:00+28ssw11701 0.0 1013377
14:00+28s22692 0.0 1010573
17:00+28s22660 0.0 1009552
20:00+28sse11650 0.0 1012653
14 april, wed
wed1423:00+27n117170 0.0 1012246
02:00+26nw11785 0.0 1011221
05:00+26n118022 0.0 1011244
08:00+26nne21804 0.0 1013207
11:00+27se227615 0.0 1012318
14:00+28sse446989 0.0 1010636
17:00+29se34685 0.0 1009893
20:00+29ese446915 0.0 1011984
15 april, thu
thu1523:00+28ese447214 0.1 1011875
02:00+28e457341 0.6 1010828
05:00+28e347444 0.2 1010849
08:00+28e457328 1.9 1012860
11:00+28ese557468 0.6 1012851
14:00+29se567598 0.6 1009757
17:00+29se6673100 0.1 1008972
20:00+29ese677365 1.6 1011978
16 april, fri
fri1623:00+28ese567469 1.9 1012854
02:00+28e347351 2.8 1011709
05:00+28ene23749 0.1 1010665
08:00+28ese347558 0.5 1012756
11:00+29ese447258 0.4 1012803
14:00+29se4472100 0.4 1009695
17:00+29sse447099 0.0 1009832
20:00+29se447126 0.0 1011946
17 april, sat
sat1723:00+29ese337168 0.1 1012928
02:00+28ese457162 2.9 1011839
05:00+28e456969 1.1 1012957
08:00+29e556695 1.2 10131150
11:00+29ese556782 0.0 10131064
14:00+28se557215 0.0 1011786
17:00+29se457282 0.0 1010931
20:00+29ese6672100 0.3 1012890